Wind_Speed
8 8 8 8 8 7 7 6 5 5 5 5 4 4 4 5 5 6 6 6 5 5 5 5 6 6 6 6 6 6 5 5 4 4 4 4 3 3 3 3 3 4 4 4
9 8 8 7 7 8 7 6 6 5 5 5 5 4 5 6 6 7 7 7 7 7 7 6 6 6 6 6 6 6 6 5 5 5 5 4 4 4 4 4 5 5 5 5
10 9 9 8 8 8 7 7 7 6 6 6 5 5 5 6 7 7 8 8 8 8 8 8 7 7 7 7 7 7 7 6 5 6 6 6 5 5 5 5 5 6 6 6
10 9 9 8 8 8 8 8 7 7 7 7 7 6 6 7 7 8 8 8 9 9 8 8 8 8 8 8 7 7 7 6 6 6 6 6 6 6 6 6 5 6 6 6
10 10 9 9 9 9 9 9 8 8 8 8 8 7 6 7 8 8 9 9 10 9 9 9 9 9 9 9 8 8 8 8 8 7 7 6 7 7 7 7 6 6 6 7
10 10 10 10 9 10 10 10 10 10 9 9 9 9 7 8 9 10 10 10 10 10 9 9 9 9 10 9 9 8 8 8 8 8 8 8 8 8 8 8 8 8 8 8
11 11 11 11 11 11 11 11 11 10 10 9 9 9 8 8 9 10 11 10 10 10 10 10 10 10 10 10 9 9 8 9 8 9 9 9 9 10 10 9 10 9 9 9
11 11 11 11 11 12 12 12 12 12 11 10 10 10 9 10 10 11 11 11 10 11 11 11 11 11 11 10 10 9 9 9 9 10 10 11 10 11 10 10 11 11 11 11
12 12 12 12 12 12 12 12 12 13 13 12 12 11 10 11 11 12 12 12 11 11 11 11 11 11 12 11 11 10 10 10 10 10 11 11 11 11 11 11 12 12 12 12
13 13 13 13 13 13 13 13 13 14 14 14 12 11 11 11 12 13 13 12 13 13 12 12 12 12 12 13 12 11 11 11 12 12 12 12 12 12 12 12 13 13 13 13
14 14 13 14 14 14 14 13 14 14 15 15 14 12 12 13 14 14 14 14 14 13 13 13 14 14 14 13 13 13 13 13 13 13 13 13 13 13 13 13 14 14 14 15
15 15 15 14 14 15 15 15 15 16 16 16 15 13 13 14 14 14 15 15 15 14 14 14 14 14 14 14 14 14 14 14 14 14 14 14 15 15 14 14 14 14 15 16
16 16 16 15 15 16 16 16 16 17 17 16 15 14 14 14 15 15 15 16 16 15 15 16 16 15 15 15 14 14 15 15 15 15 15 15 15 15 15 15 15 15 15 15
18 17 17 17 17 17 17 17 17 17 17 16 15 15 15 15 16 16 16 16 16 16 16 17 16 15 15 15 15 15 15 15 15 15 15 15 14 15 15 16 16 16 16 16
19 19 18 18 18 18 18 18 18 18 18 18 16 16 15 16 17 17 17 17 17 17 17 17 16 16 16 15 16 16 15 15 16 16 15 15 16 16 16 16 17 17 17 17
21 20 20 20 19 20 20 19 19 19 19 19 18 16 16 17 17 18 18 18 18 17 17 17 17 17 17 16 16 16 16 16 16 16 16 16 16 17 17 17 17 17 17 18
22 22 22 20 21 22 20 18 19 20 19 20 19 18 18 18 18 18 19 19 18 18 17 18 18 18 17 17 17 17 17 17 17 17 17 17 17 18 18 18 18 18 18 18
23 24 24 23 23 23 20 20 20 21 21 21 21 20 20 19 19 19 19 19 18 18 18 18 18 18 18 18 18 18 19 19 19 18 18 18 18 19 19 19 19 19 19 19
25 26 26 26 26 24 21 21 21 22 21 21 22 21 21 20 20 20 19 19 19 18 19 19 19 19 19 20 20 20 20 20 20 20 19 19 20 20 19 19 19 19 19 19
27 27 27 27 28 26 22 22 22 23 22 21 22 22 22 22 21 20 21 21 21 20 20 21 21 21 21 21 22 22 22 21 22 21 21 21 20 20 20 20 20 20 20 20
28 28 28 28 28 27 24 23 23 23 21 21 22 23 23 23 22 22 22 22 22 22 22 22 22 22 22 23 23 23 23 23 22 22 22 22 22 22 21 21 21 21 21 21
29 29 30 29 29 27 25 24 24 23 23 23 23 24 24 24 24 23 23 23 23 23 23 23 24 24 24 24 24 24 24 24 23 23 23 23 23 22 22 22 22 22 22 22
32 31 30 31 29 28 27 26 26 25 25 25 25 25 26 26 26 25 25 24 24 24 25 25 25 25 24 25 25 24 24 24 23 24 24 24 24 24 23 23 23 24 24 24
33 32 32 31 30 28 28 28 27 27 26 26 26 26 26 26 26 26 26 26 26 26 26 26 25 25 24 25 25 25 24 24 24 25 25 25 25 25 24 24 24 24 25 25
34 33 33 32 30 30 29 29 29 29 29 28 28 28 27 27 26 27 27 27 27 27 26 26 26 26 25 25 25 25 25 25 25 25 24 25 25 25 25 25 25 25 26 26
35 34 34 33 32 32 32 31 31 31 30 30 29 29 28 28 28 27 27 27 27 27 26 26 26 26 26 26 26 26 26 26 26 25 25 25 26 26 26 26 26 26 27 27
Wind_Direction
279 277 279 282 284 284 288 288 293 293 291 284 288 292 297 302 307 311 312 313 315 318 321 324 329 333 337 336 333 332 326 322 319 315 310 308 296 295 295 294 290 287 278 273
273 273 276 280 282 283 287 289 289 293 291 290 290 292 294 297 300 304 304 304 306 308 308 313 317 322 325 326 328 325 324 319 307 298 296 295 294 289 288 285 279 275 273 275
274 274 275 279 280 286 287 288 286 287 293 296 295 294 295 297 298 302 301 299 302 304 304 307 312 316 316 316 319 321 320 313 301 295 292 290 286 285 286 285 278 271 272 274
269 273 275 276 277 282 286 288 288 285 289 296 297 294 292 294 298 300 302 301 300 299 299 301 304 307 307 308 311 313 313 307 299 292 289 286 284 285 288 289 283 278 278 278
267 270 272 272 273 278 282 283 284 284 286 292 296 295 296 295 298 298 299 299 299 298 298 299 300 301 302 302 304 306 306 301 297 291 286 283 282 282 284 284 283 282 282 280
262 264 266 270 274 279 281 280 283 284 284 288 292 294 296 293 298 300 301 299 296 295 294 298 299 299 300 299 301 304 303 301 296 291 285 282 280 281 281 280 279 279 280 282
259 261 264 268 271 276 279 280 282 283 285 287 290 292 297 296 299 301 303 301 297 295 295 296 299 299 298 297 299 300 302 301 298 293 289 285 282 281 282 279 279 276 275 276
257 258 262 265 268 273 277 279 283 285 288 289 286 289 297 296 298 301 301 300 298 295 297 299 299 298 296 294 293 292 295 296 294 292 289 287 282 282 281 277 275 272 271 272
259 258 259 262 266 269 276 278 283 285 286 286 285 287 289 292 294 297 298 299 298 297 298 297 296 294 293 291 290 290 291 294 294 292 290 287 282 282 280 278 275 272 271 272
258 259 259 261 263 266 273 277 279 283 286 286 285 286 289 291 292 293 296 299 300 298 297 294 290 290 290 291 289 289 289 292 292 291 289 287 284 284 281 278 277 274 272 273
258 260 260 262 264 267 270 272 276 280 285 289 288 287 288 289 291 292 295 298 300 299 297 295 292 289 288 289 288 286 285 286 288 289 288 285 284 285 284 281 278 277 275 274
258 260 262 263 265 268 270 272 276 279 284 288 291 292 289 287 288 289 292 295 296 297 294 294 293 291 288 287 289 289 287 285 286 287 286 284 284 284 283 282 281 281 279 276
259 259 262 264 265 267 268 271 274 278 281 286 290 293 289 288 288 289 289 292 292 292 291 290 290 291 292 291 291 290 288 287 288 288 288 286 283 281 282 281 281 282 280 279
258 259 261 266 269 268 268 270 273 276 279 282 286 288 286 286 287 288 289 289 289 287 287 288 289 290 293 293 292 289 288 289 290 289 288 286 283 281 281 281 280 279 278 278
257 261 262 264 266 267 268 269 272 275 278 280 283 284 286 286 287 288 289 288 287 286 285 286 286 287 288 290 291 292 289 291 291 290 288 286 284 282 281 281 280 277 277 277
257 263 264 265 266 267 267 268 271 274 277 280 281 282 283 284 285 287 289 289 287 285 285 284 284 285 286 287 287 288 288 290 290 290 289 287 286 285 283 281 280 278 276 276
257 261 264 266 265 266 267 269 270 273 275 278 280 282 281 283 285 287 289 290 289 284 284 284 284 285 286 285 285 286 286 287 289 290 289 287 285 284 284 282 279 278 277 276
257 260 265 267 267 267 270 269 271 273 274 276 280 281 281 281 282 284 286 287 287 285 283 283 284 284 283 283 283 283 284 285 287 288 288 286 284 282 282 282 280 278 277 276
257 260 263 265 267 269 268 270 271 272 272 274 276 279 279 280 281 284 284 284 284 283 282 281 281 282 282 282 282 283 285 286 286 286 286 285 284 283 281 281 279 277 277 277
258 260 262 265 267 269 269 270 270 271 272 273 274 276 277 279 280 281 280 280 280 280 281 281 281 282 282 283 283 283 284 285 286 286 286 285 284 282 280 279 277 277 277 278
258 259 261 263 266 268 269 270 271 271 273 271 271 273 275 277 279 280 280 280 280 280 281 282 283 283 284 283 284 284 284 284 284 284 285 284 283 281 279 279 277 276 277 279
259 260 261 262 264 266 269 270 270 271 271 271 271 272 274 276 278 279 280 280 280 280 281 283 283 283 283 284 284 284 284 284 283 283 283 283 281 280 279 278 277 276 277 279
258 260 261 262 264 266 267 268 269 271 272 272 272 273 274 275 277 279 279 280 280 280 281 282 283 284 285 285 284 282 283 283 283 283 282 281 279 279 277 276 275 275 277 279
258 259 260 262 263 264 265 265 267 269 270 272 273 273 275 276 276 277 279 280 280 281 281 282 283 284 285 285 285 283 283 282 283 282 281 280 279 279 278 277 277 277 278 278
258 259 261 262 262 263 263 264 265 266 269 270 272 274 274 275 276 276 276 278 279 280 280 281 281 282 284 285 285 284 283 283 283 284 282 280 278 277 278 279 279 280 281 279
257 259 260 260 261 261 261 263 264 266 269 270 271 273 274 275 276 277 276 277 278 278 279 281 281 282 284 285 285 283 282 282 282 284 284 282 280 278 278 278 279 280 281 281
Height
5872 5873 5872 5872 5871 5871 5871 5871 5871 5870 5869 5869 5868 5868 5867 5866 5866 5865 5864 5863 5862 5861 5860 5859 5858 5857 5856 5854 5853 5852 5851 5850 5849 5849 5848 5848 5847 5847 5847 5846 5846 5846 5846 5846
5871 5871 5871 5870 5870 5870 5870 5870 5870 5869 5868 5868 5868 5867 5867 5866 5865 5864 5863 5862 5861 5860 5859 5858 5857 5856 5855 5854 5853 5851 5850 5849 5849 5848 5848 5847 5847 5846 5846 5846 5845 5845 5845 5845
5869 5870 5869 5869 5869 5869 5869 5869 5869 5868 5868 5867 5867 5867 5866 5865 5864 5863 5862 5861 5860 5859 5858 5857 5856 5855 5854 5853 5852 5850 5849 5848 5848 5847 5846 5846 5846 5845 5845 5844 5844 5844 5843 5843
5867 5867 5867 5867 5867 5867 5867 5867 5867 5867 5867 5866 5866 5866 5865 5864 5863 5862 5861 5860 5859 5858 5857 5855 5854 5853 5852 5851 5850 5849 5848 5847 5846 5845 5845 5845 5844 5844 5843 5843 5842 5842 5842 5841
5865 5865 5865 5866 5866 5866 5866 5866 5866 5865 5865 5865 5864 5864 5865 5863 5861 5861 5860 5858 5857 5856 5855 5854 5853 5852 5851 5849 5849 5848 5846 5845 5845 5844 5844 5843 5843 5842 5842 5841 5841 5840 5840 5840
5863 5863 5863 5864 5864 5864 5864 5864 5864 5863 5863 5864 5863 5863 5863 5861 5860 5859 5858 5857 5855 5854 5853 5852 5851 5849 5848 5847 5846 5845 5844 5843 5843 5842 5842 5841 5841 5840 5840 5839 5839 5838 5838 5838
5860 5861 5861 5861 5862 5862 5862 5862 5862 5861 5861 5862 5861 5860 5861 5859 5858 5857 5856 5855 5853 5852 5851 5849 5848 5847 5846 5845 5844 5843 5842 5841 5840 5840 5839 5839 5838 5838 5837 5837 5836 5836 5836 5835
5857 5859 5859 5859 5859 5859 5859 5860 5860 5860 5859 5859 5859 5858 5859 5857 5856 5854 5853 5852 5851 5850 5848 5847 5846 5844 5843 5842 5841 5840 5840 5839 5838 5837 5836 5836 5835 5835 5834 5834 5833 5833 5833 5832
5854 5856 5856 5856 5857 5857 5857 5857 5857 5857 5856 5856 5856 5856 5856 5854 5853 5852 5851 5850 5848 5847 5846 5844 5843 5842 5841 5840 5839 5838 5837 5836 5835 5834 5833 5833 5832 5832 5831 5830 5830 5829 5829 5829
5851 5853 5853 5854 5854 5854 5854 5854 5854 5854 5853 5852 5853 5853 5853 5852 5850 5849 5848 5847 5845 5844 5843 5841 5840 5839 5838 5837 5836 5835 5834 5833 5832 5831 5830 5829 5829 5828 5827 5827 5826 5825 5825 5825
5848 5849 5850 5851 5851 5851 5852 5852 5851 5850 5850 5849 5849 5852 5850 5849 5847 5846 5845 5844 5842 5841 5840 5838 5837 5835 5834 5833 5832 5832 5831 5830 5829 5828 5827 5826 5825 5824 5824 5823 5822 5821 5821 5820
5844 5846 5846 5847 5848 5848 5848 5848 5848 5848 5847 5846 5845 5849 5846 5845 5843 5842 5841 5840 5839 5837 5836 5835 5833 5832 5831 5830 5829 5828 5827 5826 5825 5824 5823 5822 5821 5820 5820 5819 5818 5817 5816 5815
5841 5842 5843 5843 5845 5845 5844 5844 5844 5844 5843 5842 5842 5845 5842 5841 5839 5839 5838 5836 5835 5834 5832 5831 5830 5829 5828 5826 5825 5824 5823 5822 5821 5820 5819 5818 5817 5816 5815 5815 5814 5813 5812 5811
5837 5837 5839 5840 5840 5839 5840 5840 5840 5840 5839 5839 5839 5839 5838 5836 5835 5834 5833 5832 5831 5830 5828 5827 5826 5825 5824 5822 5821 5820 5819 5818 5817 5816 5815 5813 5812 5812 5811 5810 5809 5808 5807 5806
5832 5833 5834 5834 5835 5835 5835 5836 5835 5835 5835 5835 5835 5834 5834 5832 5831 5830 5829 5828 5827 5825 5824 5823 5822 5821 5820 5819 5817 5816 5815 5813 5812 5811 5810 5809 5808 5807 5806 5805 5804 5803 5802 5802
5827 5828 5829 5830 5830 5830 5830 5831 5831 5831 5830 5830 5830 5830 5829 5828 5827 5826 5824 5823 5822 5821 5820 5818 5817 5816 5815 5814 5813 5812 5810 5809 5808 5806 5805 5804 5802 5801 5800 5800 5799 5798 5798 5797
5822 5823 5824 5824 5825 5824 5826 5827 5826 5826 5826 5826 5825 5826 5824 5823 5822 5821 5819 5818 5817 5816 5815 5814 5813 5812 5810 5809 5808 5807 5806 5804 5803 5801 5800 5798 5797 5796 5795 5794 5794 5793 5793 5792
5817 5817 5818 5818 5819 5819 5824 5822 5822 5821 5821 5821 5820 5820 5819 5818 5817 5815 5814 5813 5812 5811 5810 5809 5808 5806 5805 5804 5803 5802 5800 5799 5798 5796 5794 5793 5791 5790 5789 5789 5788 5788 5787 5787
5811 5812 5812 5812 5812 5813 5817 5817 5816 5815 5816 5815 5814 5814 5813 5812 5811 5810 5809 5808 5807 5806 5805 5803 5802 5801 5800 5798 5797 5796 5795 5793 5791 5790 5788 5787 5786 5784 5784 5783 5782 5782 5782 5782
5805 5805 5806 5806 5805 5807 5811 5811 5809 5810 5810 5810 5808 5807 5807 5806 5806 5806 5804 5802 5801 5800 5799 5797 5796 5795 5794 5792 5791 5790 5788 5787 5785 5783 5782 5781 5780 5778 5778 5777 5777 5777 5776 5776
5797 5798 5799 5799 5798 5800 5803 5803 5803 5804 5805 5803 5802 5801 5801 5800 5799 5799 5797 5796 5795 5793 5792 5791 5790 5789 5787 5786 5784 5783 5782 5780 5779 5777 5775 5774 5773 5772 5771 5771 5771 5770 5770 5770
5790 5791 5792 5792 5792 5796 5796 5796 5796 5797 5796 5796 5795 5795 5794 5793 5792 5792 5791 5789 5788 5787 5786 5784 5783 5782 5780 5779 5777 5776 5774 5773 5771 5770 5768 5767 5766 5765 5765 5764 5764 5764 5763 5763
5782 5784 5784 5785 5787 5788 5788 5788 5788 5788 5789 5788 5788 5788 5787 5786 5786 5785 5784 5783 5781 5780 5779 5777 5776 5774 5773 5772 5770 5769 5767 5766 5764 5763 5761 5759 5758 5758 5757 5757 5757 5757 5756 5756
5773 5774 5775 5776 5778 5779 5779 5779 5780 5780 5780 5780 5780 5780 5779 5778 5778 5777 5776 5775 5774 5773 5771 5770 5768 5767 5766 5764 5763 5761 5760 5758 5757 5755 5753 5751 5750 5749 5750 5749 5749 5749 5749 5748
5764 5765 5766 5767 5769 5770 5770 5770 5771 5771 5771 5771 5771 5771 5771 5770 5770 5769 5768 5767 5766 5765 5764 5762 5761 5760 5758 5757 5755 5753 5752 5750 5749 5747 5745 5743 5742 5742 5742 5742 5742 5741 5741 5740
5755 5756 5756 5758 5760 5760 5761 5762 5762 5762 5763 5763 5763 5763 5762 5762 5761 5761 5760 5758 5757 5757 5756 5754 5753 5752 5751 5749 5747 5745 5744 5743 5741 5740 5738 5737 5735 5735 5734 5734 5734 5733 5733 5732